Location: Brookview Estates
(36.0476°N, 86.6931°W)
Time: 12:16:43
(UTC+00:00)

ISS - Visible Passes

Search period start: 15 July 2020 00:00
Search period end: 25 July 2020 00:00
Orbit: 417 x 419 km, 51.6° (Epoch: 16 July)

Date Brightness Start Highest point End Pass type
(mag) Time Alt. Az. Time Alt. Az. Time Alt. Az.
15 Jul -3.3 01:59:22 10° SSW 02:02:30 38° SE 02:05:39 10° ENE visible
15 Jul -1.1 03:36:40 10° W 03:39:22 22° NNW 03:42:03 10° NNE visible
15 Jul -0.8 08:30:55 10° NNW 08:33:24 19° NNE 08:35:53 10° ENE visible
15 Jul -3.5 10:07:07 10° WNW 10:10:21 48° SW 10:13:35 10° SSE visible
16 Jul -2.0 02:48:11 10° WSW 02:51:17 34° NW 02:54:23 10° NNE visible
16 Jul -0.4 07:43:29 10° N 07:45:14 13° NNE 07:47:00 10° ENE visible
16 Jul -3.8 09:19:05 10° NW 09:22:27 87° NE 09:25:48 10° SE visible
17 Jul -3.1 01:59:57 10° WSW 02:03:16 60° NW 02:06:36 10° NE visible
17 Jul -0.2 03:39:31 10° NW 03:40:37 11° NNW 03:41:43 10° N visible
17 Jul -2.7 08:31:13 10° NW 08:34:27 46° NE 08:37:42 10° ESE visible
17 Jul -2.0 10:09:01 10° W 10:10:56 14° SW 10:12:50 10° SSW visible
18 Jul -0.5 02:50:17 10° WNW 02:52:24 15° NNW 02:54:30 10° NNE visible
18 Jul -1.4 09:25:41 12° S 09:25:41 12° S 09:25:58 10° S visible
19 Jul -1.0 02:01:31 10° W 02:04:14 22° NNW 02:06:57 10° NNE visible
21 Jul -0.4 02:04:11 10° NW 02:05:23 11° NNW 02:06:36 10° N visible
24 Jul -0.3 04:33:04 10° N 04:33:25 11° N 04:33:25 11° N visible
